TimeMDT,TemperatureF,Dew PointF,Humidity,Sea Level PressureIn,VisibilityMPH,Wind Direction,Wind SpeedMPH,Gust SpeedMPH,PrecipitationIn,Events,Conditions,WindDirDegrees,DateUTC
12:15 AM,41.0,15.8,36,29.89,7.0,North,24.2,33.4,N/A,,Clear,350,2013-04-10 06:15:00
12:35 AM,39.2,15.8,39,29.91,7.0,North,24.2,29.9,N/A,,Clear,360,2013-04-10 06:35:00
12:55 AM,39.2,14.0,36,29.95,7.0,North,19.6,-,N/A,,Clear,360,2013-04-10 06:55:00
1:15 AM,39.2,14.0,36,29.95,7.0,North,20.7,-,N/A,,Clear,10,2013-04-10 07:15:00
1:35 AM,37.4,14.0,38,29.98,8.0,North,18.4,21.9,N/A,,Scattered Clouds,10,2013-04-10 07:35:00
1:55 AM,37.4,12.2,36,29.98,9.0,NNE,18.4,-,N/A,,Scattered Clouds,20,2013-04-10 07:55:00
2:15 AM,37.4,12.2,36,29.97,9.0,NNE,16.1,-,N/A,,Partly Cloudy,20,2013-04-10 08:15:00
2:35 AM,37.4,12.2,36,29.96,8.0,NNE,18.4,23.0,N/A,,Partly Cloudy,30,2013-04-10 08:35:00
2:55 AM,35.6,10.4,35,29.99,8.0,NNE,13.8,-,N/A,,Mostly Cloudy,20,2013-04-10 08:55:00
3:15 AM,35.6,10.4,35,29.98,8.0,NNE,13.8,19.6,N/A,,Mostly Cloudy,20,2013-04-10 09:15:00
3:35 AM,35.6,10.4,35,29.97,9.0,North,17.3,-,N/A,,Mostly Cloudy,10,2013-04-10 09:35:00
3:55 AM,35.6,10.4,35,30.00,9.0,North,15.0,-,N/A,,Mostly Cloudy,10,2013-04-10 09:55:00
4:15 AM,33.8,10.4,38,29.99,8.0,North,17.3,-,N/A,,Partly Cloudy,10,2013-04-10 10:15:00
4:35 AM,33.8,10.4,38,30.00,8.0,North,15.0,-,N/A,,Clear,10,2013-04-10 10:35:00
4:55 AM,32.0,10.4,41,29.99,10.0,North,13.8,-,N/A,,Clear,360,2013-04-10 10:55:00
5:15 AM,32.0,10.4,41,30.00,10.0,North,15.0,-,N/A,,Clear,360,2013-04-10 11:15:00
5:35 AM,32.0,10.4,41,30.01,10.0,North,15.0,-,N/A,,Clear,10,2013-04-10 11:35:00
5:55 AM,32.0,10.4,41,30.02,10.0,NNE,10.4,-,N/A,,Clear,20,2013-04-10 11:55:00
6:15 AM,32.0,10.4,41,30.03,10.0,NNE,10.4,-,N/A,,Clear,20,2013-04-10 12:15:00
6:35 AM,32.0,10.4,41,30.05,10.0,North,8.1,-,N/A,,Partly Cloudy,10,2013-04-10 12:35:00
6:55 AM,32.0,10.4,41,30.06,10.0,North,9.2,-,N/A,,Mostly Cloudy,10,2013-04-10 12:55:00
7:15 AM,32.0,8.6,38,30.07,10.0,NNE,11.5,-,N/A,,Overcast,30,2013-04-10 13:15:00
7:35 AM,32.0,8.6,38,30.08,10.0,NE,10.4,-,N/A,,Overcast,40,2013-04-10 13:35:00
7:55 AM,32.0,8.6,38,30.07,10.0,NE,11.5,-,N/A,,Overcast,40,2013-04-10 13:55:00
8:15 AM,32.0,8.6,38,30.08,10.0,NNE,15.0,-,N/A,,Overcast,20,2013-04-10 14:15:00
8:55 AM,32.0,6.8,35,30.09,10.0,NE,11.5,17.3,N/A,,Overcast,50,2013-04-10 14:55:00
9:15 AM,32.0,6.8,35,30.10,10.0,NNE,12.7,16.1,N/A,,Overcast,20,2013-04-10 15:15:00
9:35 AM,33.8,6.8,32,30.10,10.0,NNE,12.7,-,N/A,,Overcast,30,2013-04-10 15:35:00
9:55 AM,35.6,6.8,30,30.09,10.0,NNE,9.2,-,N/A,,Overcast,30,2013-04-10 15:55:00
10:15 AM,35.6,8.6,33,30.09,10.0,NNE,8.1,16.1,N/A,,Scattered Clouds,30,2013-04-10 16:15:00
10:35 AM,35.6,8.6,33,30.09,10.0,NNE,12.7,17.3,N/A,,Scattered Clouds,20,2013-04-10 16:35:00
11:15 AM,37.4,8.6,30,30.07,10.0,NNE,5.8,-,N/A,,Clear,20,2013-04-10 17:15:00
11:35 AM,39.2,8.6,28,30.07,10.0,NNE,10.4,-,N/A,,Clear,20,2013-04-10 17:35:00
11:55 AM,39.2,8.6,28,30.06,10.0,North,10.4,-,N/A,,Clear,10,2013-04-10 17:55:00
12:15 PM,39.2,8.6,28,30.05,10.0,NE,6.9,-,N/A,,Clear,40,2013-04-10 18:15:00
12:35 PM,41.0,10.4,29,30.04,10.0,NE,9.2,-,N/A,,Clear,50,2013-04-10 18:35:00
1:15 PM,42.8,10.4,27,30.02,10.0,NNE,4.6,-,N/A,,Clear,30,2013-04-10 19:15:00
1:35 PM,44.6,12.2,27,30.02,10.0,North,3.5,-,N/A,,Clear,10,2013-04-10 19:35:00
1:55 PM,44.6,12.2,27,30.00,10.0,NW,3.5,-,N/A,,Clear,320,2013-04-10 19:55:00
2:15 PM,46.4,14.0,27,29.99,10.0,ENE,6.9,-,N/A,,Clear,70,2013-04-10 20:15:00
2:35 PM,46.4,14.0,27,29.98,10.0,West,3.5,-,N/A,,Clear,280,2013-04-10 20:35:00
2:55 PM,46.4,14.0,27,29.97,10.0,Calm,Calm,-,N/A,,Clear,0,2013-04-10 20:55:00
3:15 PM,48.2,14.0,25,29.95,10.0,NE,4.6,-,N/A,,Clear,50,2013-04-10 21:15:00
3:35 PM,48.2,14.0,25,29.95,10.0,North,4.6,-,N/A,,Scattered Clouds,350,2013-04-10 21:35:00
3:55 PM,48.2,14.0,25,29.94,10.0,NE,6.9,-,N/A,,Scattered Clouds,50,2013-04-10 21:55:00
4:15 PM,48.2,14.0,25,29.92,10.0,Calm,Calm,-,N/A,,Partly Cloudy,0,2013-04-10 22:15:00
4:35 PM,50.0,14.0,24,29.92,10.0,East,4.6,-,N/A,,Partly Cloudy,80,2013-04-10 22:35:00
4:55 PM,50.0,14.0,24,29.92,10.0,SSE,4.6,-,N/A,,Clear,160,2013-04-10 22:55:00
5:15 PM,50.0,15.8,26,29.92,10.0,NE,4.6,-,N/A,,Scattered Clouds,50,2013-04-10 23:15:00
5:35 PM,50.0,15.8,26,29.92,10.0,ESE,3.5,-,N/A,,Partly Cloudy,120,2013-04-10 23:35:00
5:55 PM,50.0,15.8,26,29.91,10.0,SE,3.5,-,N/A,,Scattered Clouds,130,2013-04-10 23:55:00
6:15 PM,51.8,15.8,24,29.91,10.0,Calm,Calm,-,N/A,,Mostly Cloudy,0,2013-04-11 00:15:00
6:35 PM,51.8,15.8,24,29.91,10.0,SSE,4.6,-,N/A,,Partly Cloudy,150,2013-04-11 00:35:00
6:55 PM,50.0,15.8,26,29.91,10.0,South,4.6,-,N/A,,Clear,170,2013-04-11 00:55:00
7:15 PM,50.0,15.8,26,29.91,10.0,SSE,3.5,-,N/A,,Partly Cloudy,150,2013-04-11 01:15:00
7:35 PM,50.0,14.0,24,29.92,10.0,South,4.6,-,N/A,,Partly Cloudy,190,2013-04-11 01:35:00
7:55 PM,50.0,14.0,24,29.93,10.0,Calm,Calm,-,N/A,,Clear,0,2013-04-11 01:55:00
8:15 PM,48.2,14.0,25,29.93,10.0,SW,4.6,-,N/A,,Partly Cloudy,230,2013-04-11 02:15:00
8:55 PM,48.2,12.2,24,29.94,10.0,SW,5.8,-,N/A,,Scattered Clouds,230,2013-04-11 02:55:00
9:15 PM,46.4,12.2,25,29.95,10.0,NNW,6.9,-,N/A,,Partly Cloudy,340,2013-04-11 03:15:00
9:35 PM,46.4,12.2,25,29.96,10.0,NW,5.8,-,N/A,,Clear,320,2013-04-11 03:35:00
9:55 PM,44.6,12.2,27,29.96,6.0,NNW,5.8,-,N/A,,Haze,340,2013-04-11 03:55:00
10:15 PM,44.6,12.2,27,29.96,9.0,NNW,5.8,-,N/A,,Clear,330,2013-04-11 04:15:00
10:35 PM,44.6,12.2,27,29.96,6.0,NW,4.6,-,N/A,,Haze,320,2013-04-11 04:35:00
10:55 PM,42.8,12.2,29,29.96,10.0,NNW,6.9,-,N/A,,Clear,330,2013-04-11 04:55:00
11:15 PM,41.0,10.4,29,29.96,10.0,NW,8.1,-,N/A,,Clear,320,2013-04-11 05:15:00
11:35 PM,41.0,10.4,29,29.96,10.0,NW,6.9,-,N/A,,Clear,310,2013-04-11 05:35:00
11:55 PM,41.0,14.0,33,29.97,10.0,Calm,Calm,-,N/A,,Clear,0,2013-04-11 05:55:00